Regional Weather Roundup
Issued by NWS

Home | Current Version | Previous Version | Graphics & Text | Print | Product List | Glossary On
Versions: 1 2 3 4 5 6 7 8 9 10 11 12 13 14 15 16 17 18 19 20 21 22 23 24 25 26 27 28 29 30 31 32 33 34 35 36 37 38 39 40 41 42 43 44 45 46 47 48 49 50
000
ASUS43 KFSD 231710
RWRSD

WEATHER ROUNDUP FOR SOUTH DAKOTA
NATIONAL WEATHER SERVICE SIOUX FALLS SD
1200 PM CDT MON APR 23 2018

NOTE: "FAIR" INDICATES FEW OR NO CLOUDS BELOW 12,000 FEET WITH NO
SIGNIFICANT WEATHER AND/OR OBSTRUCTIONS TO VISIBILITY.


SDZ001>005-009-010-012>017-231800-
NORTHWEST AND NORTH CENTRAL SOUTH DAKOTA

CITY           SKY/WX    TMP DP  RH WIND       PRES   REMARKS
BUFFALO          N/A     60  38  43 E23G33    30.05F
FAITH            N/A     61  42  49 E14G21    30.12S
MOBRIDGE       SUNNY     63  41  44 VRB3      30.13F
$$

SDZ012>016-024>037-041>051-057-063-072>074-231800-
SOUTHWEST AND SOUTH CENTRAL SOUTH DAKOTA

CITY           SKY/WX    TMP DP  RH WIND       PRES   REMARKS
RAPID CTY ARPT SUNNY     59  42  53 SE10      30.09F
PIERRE         SUNNY     64  42  44 SE15      30.13F
CUSTER         SUNNY     54  34  46 E15       30.11R
ELLSWORTH AFB  SUNNY     59  43  55 SE12      30.09F
PHILIP         SUNNY     62  41  46 E8        30.11F
PINE RIDGE     SUNNY     62  41  46 SE8       30.09F
SPEARFISH      FAIR      59  43  55 E21       30.07F
WINNER         FAIR      63  38  39 S12       30.16S
$$

SDZ004>011-016>023-039-040-231800-
NORTHEAST SOUTH DAKOTA

CITY           SKY/WX    TMP DP  RH WIND       PRES   REMARKS
ABERDEEN       SUNNY     65  39  38 S6        30.19S
WATERTOWN      SUNNY     61  38  42 VRB6      30.20S
BROOKINGS      SUNNY     60  38  43 CALM      30.21
SISSETON         N/A     66  38  35 S8        30.18S
$$

SDZ017-020-022-023-036>040-048>070-231800-
SOUTHEAST SOUTH DAKOTA

CITY           SKY/WX    TMP DP  RH WIND       PRES   REMARKS
SIOUX FALLS    MOSUNNY   65  33  30 VRB3      30.20
HURON          NOT AVBL
CHAMBERLAIN    SUNNY     66  43  44 SE8       30.17S
MITCHELL       SUNNY     63  41  44 CALM      30.19F
YANKTON        SUNNY     63  37  38 SE6       30.20S
$$

ABBREVIATIONS USED IN REMARKS
   TC - TEMPERATURE IN CELSIUS
  WCI - WIND CHILL INDEX
   HX - HEAT INDEX
  VSB - VISIBILITY





USA.gov is the U.S. government's official web portal to all federal, state and local government web resources and services.